Home   Weather   Delémont   Past weeks

Flag for Switzerland Past Weather in Delémont, Jura, Switzerland — Yesterday and Last 2 Weeks

Now
60 °F

Cool.


Feels Like: 60 °F
Forecast: 53 / 73 °F
Wind: 2 mph from Southwest

Location: Grenchen

Current Time: Sep 29, 2016 at 10:34:24 PM

Latest Report: Sep 29, 2016 at 9:00 PM


Visibility: N/A

Pressure: 30.15 "Hg

Humidity: 81%

Dew Point: 54 °F

Location of DelémontLocation

Past Weather in Delémont — Graph

°F

Delémont Temperature Yesterday

Maximum temperature yesterday: 70 °F (at 6:00 PM)
Minimum temperature yesterday: 48 °F (at 4:00 AM)
Average temperature yesterday: 57 °F

High & Low Weather Summary for the Past Weeks

 TemperatureHumidityPressure
High74 °F (Sep 29, 4:00 PM)100% (Sep 22, 12:00 AM)30.50 "Hg (Sep 22, 12:00 AM)
Low43 °F (Sep 22, 7:00 AM)48% (Sep 29, 4:00 PM)29.79 "Hg (Sep 15, 3:00 AM)
Average58 °F86%30.14 "Hg
* Reported Sep 14 9:00 PM — Sep 29 9:00 PM, Delémont, Weather by CustomWeather, © 2016

Note: Actual official high and low records may vary slightly from our data, if they occured in-between our weather recording intervals... More about our weather records

Advertising

Delémont Weather History for the Previous 24 Hours

Scroll right to see more
 ConditionsComfort  
Time TempWeatherWind HumidityBarometerVisibility
9:00 PM
Thu, Sep 29
60 °FCool.2 mph81%30.15 "HgN/A
8:00 PM63 °FMild.2 mph72%30.13 "HgN/A
7:00 PM70 °FMild.8 mph56%30.12 "HgN/A
6:00 PM73 °FMild.8 mph51%30.11 "HgN/A
5:00 PM74 °FMild.10 mph50%30.13 "HgN/A
4:00 PM74 °FMild.12 mph48%30.15 "HgN/A
3:00 PM73 °FMild.14 mph50%30.17 "HgN/A
2:00 PM71 °FMild.14 mph55%30.21 "HgN/A
1:00 PM67 °FMild.7 mph71%30.26 "HgN/A
12:00 PM58 °FCool.5 mph99%30.31 "HgN/A
11:00 AM56 °FCool.3 mph100%30.34 "HgN/A
10:00 AM53 °FCool.1 mph99%30.36 "HgN/A
9:00 AM51 °FCool.2 mph100%30.37 "HgN/A
8:00 AM48 °FCool.3 mph99%30.37 "HgN/A
7:00 AM49 °FCool.1 mph99%30.38 "HgN/A
6:00 AM49 °FCool.1 mph99%30.39 "HgN/A
5:00 AM50 °FCool.1 mph99%30.40 "HgN/A
4:00 AM49 °FCool.1 mph99%30.41 "HgN/A
3:00 AM49 °FCool.1 mph99%30.42 "HgN/A
2:00 AM50 °FCool.1 mph99%30.42 "HgN/A
1:00 AM52 °FCool.1 mph99%30.42 "HgN/A
12:00 AM53 °FCool.No wind99%30.43 "HgN/A
11:00 PM
Wed, Sep 28
53 °FCool.1 mph99%30.43 "HgN/A
10:00 PM55 °FCool.1 mph94%30.42 "HgN/A
Weather by CustomWeather, © 2016

See weather overviewHow to use our weather pages